Location: Lecco
(45.8566°N, 9.3977°E)
Time: 03:31:07
(UTC+02:00)

Transit 4A - Pass Details

Date: 18 August 2020
Orbit: 863 x 982 km, 66.8° (Epoch: 23 September)

Event Time Altitude Azimuth Distance (km) Brightness Sun altitude
Rises 12:16:26 0° 294° (WNW) 3,575 10.7 53.9°
Reaches altitude 10° 12:21:01 10° 325° (NW) 2,665 10.1 54.2°
Maximum altitude 12:23:13 12° 346° (NNW) 2,548 10.0 54.4°
Drops below altitude 10° 12:25:25 10° 7° (N) 2,694 10.1 54.6°
Sets 12:30:08 0° 38° (NE) 3,667 10.8 54.9°
